Regional Weather Roundup
Issued by NWS

Home | Current Version | Previous Version | Graphics & Text | Print | Product List | Glossary On
Versions: 1 2 3 4 5 6 7 8 9 10 11 12 13 14 15 16 17 18 19 20 21 22 23 24 25 26 27
000
ASUS45 KSLC 260310
RWRUT

UTAH REGIONAL WEATHER ROUNDUP
NATIONAL WEATHER SERVICE SALT LAKE CITY UT
900 PM MDT SAT OCT 25 2014

UTZ001>011-023>025-260400-

NORTHERN UTAH

CITY           SKY/WX    TMP DP  RH WIND       PRES   REMARKS
BRIGHAM CITY   CLOUDY    69  31  24 S16       29.86S
HILL AFB       CLOUDY    67  37  32 S17G24    29.89F
LOGAN          CLEAR     64  33  31 S10       29.85F
OGDEN          CLOUDY    67  37  33 S14       29.87F
PROVO AIRPORT  MOCLDY    66  39  37 S10       29.96S
SALT LAKE CITY MOCLDY    71  38  29 S18G29    29.87F
VERNAL         PTCLDY    51  36  56 W6        30.04F
WENDOVER       CLEAR     66  28  24 SW17      29.85R
HEBER CITY     MOCLDY    59  32  36 S3        29.99F
WEST JORDAN    CLEAR     70  46  43 S20G35    29.91S

$$

UTZ012>022-026-027-260400-

SOUTHERN/CENTRAL UTAH

CITY           SKY/WX    TMP DP  RH WIND       PRES   REMARKS
BLANDING       CLEAR     57  31  37 NE5       30.23S
BRYCE CANYON   PTCLDY    52  36  54 S9        30.23R
CEDAR CITY     CLEAR     62  38  40 S13       30.08R
DELTA          PTCLDY    66  38  35 S18G24    29.99S
HANKSVILLE       N/A     66  34  30 CALM      30.03F
MILFORD        CLEAR     62  39  42 S17       30.02R
MOAB/CYNLANDS  CLEAR     67  33  28 S3        30.02S
PRICE          PTCLDY    60  32  34 E9        30.07F
ST GEORGE      MOCLDY    73  39  29 S9        29.99S

$$

REGIONAL REPORTS     COLORADO/ARIZONA

CITY           SKY/WX    TMP DP  RH WIND       PRES   REMARKS
CRAIG, CO      PTCLDY    47  30  51 E7        30.10F
GRAND JUNCTION CLEAR     58  32  37 CALM      30.07S
RIFLE          PTCLDY    54  35  48 SE5       30.10R
MONTROSE       CLEAR     56  34  43 E9        30.16S
CORTEZ         PTCLDY    51  36  56 E8        30.19S
PAGE, AZ       CLEAR     68  38  33 S6        30.05S
GRAND CANYON   CLEAR     54  39  57 SW3       30.24S
KINGMAN        CLEAR     63  44  50 SE9       30.05S
FLAGSTAFF      CLEAR     56  42  59 W5        30.28S

$$

REGIONAL REPORTS    NEVADA/IDAHO/WYOMING

CITY           SKY/WX    TMP DP  RH WIND       PRES   REMARKS
LAS VEGAS, NV  PTCLDY    80  40  23 S8        29.90F
ELY            CLEAR     60  33  36 MISG      30.02S
ELKO           CLOUDY    58  30  34 W14G23    29.94R
POCATELLO, ID  MOCLDY    69  32  25 S18       29.79F
BURLEY         CLOUDY    62  40  44 SW13      29.80R
EVANSTON, WY   PTCLDY    56  30  37 SW17      30.02S
ROCK SPRINGS   PTCLDY    55  28  35 S8        30.01F
KEMMERER       MOCLDY    50  21  32 S3        30.03F

$$



USA.gov is the U.S. government's official web portal to all federal, state and local government web resources and services.